Regional Weather Roundup
Issued by NWS

Home | Current Version | Previous Version | Graphics & Text | Print | Product List | Glossary On
Versions: 1 2 3 4 5 6 7 8 9 10 11 12 13 14 15 16 17 18 19 20 21 22 23 24 25 26 27 28 29 30 31 32 33 34 35 36 37 38 39 40 41 42 43 44 45 46 47 48 49 50
000
ASUS43 KIND 300759
RWRIN

WEATHER ROUNDUP FOR INDIANA
NATIONAL WEATHER SERVICE INDIANAPOLIS IN
400 AM EDT THU OCT 30 2014

NOTE: "FAIR" INDICATES FEW OR NO CLOUDS BELOW 12,000 FEET WITH NO
SIGNIFICANT WEATHER AND/OR OBSTRUCTIONS TO VISIBILITY.

* - STATION DOES NOT REPORT WEATHER SUCH AS PRECIPITATION OR FOG.

+ - STATION NOT QUALITY CONTROLLED BY THE NATIONAL WEATHER SERVICE.
    USE DATA WITH CAUTION...ESPECIALLY DEWPOINT AND RELATIVE
    HUMIDITY OBSERVATIONS.

INZ001>003-010>013-019-020-300900-
NORTHWEST INDIANA

CITY           SKY/WX    TMP DP  RH WIND       PRES   REMARKS
VALPARAISO     NOT AVBL

$$

LMZ046-743>745-300900-
SOUTHERN LAKE MICHIGAN

STATION/POSITION TIME  TEMP WIND        PRES
                       AIR  DIR/SP/G
                 (UTC) (F)  (DEG/KT/KT) (MB)
MICHIGAN CITY    0700   46  170/  5/  7   N/A

$$

INZ004-005-014>016-021>024-300900-
NORTH CENTRAL INDIANA

CITY           SKY/WX    TMP DP  RH WIND       PRES   REMARKS
GOSHEN         CLOUDY    43  37  79 SW3       30.13R
SOUTH BEND     CLOUDY    44  36  73 SW3       30.14S

$$

INZ006>009-017-018-025>027-300900-
NORTHEAST INDIANA

CITY           SKY/WX    TMP DP  RH WIND       PRES   REMARKS
ANGOLA *+      CLOUDY    43  37  81 CALM      30.12R
FORT WAYNE     CLOUDY    43  36  76 W3        30.14S

$$

INZ028-029-035-036-043>045-051>053-300900-
WEST CENTRAL INDIANA

CITY           SKY/WX    TMP DP  RH WIND       PRES   REMARKS
GREENCASTLE +  CLEAR     34  32  93 CALM      30.15S
LAFAYETTE      CLEAR     34  33  96 CALM      30.15S
TERRE HAUTE    CLEAR     35  33  92 CALM      30.16F

$$

INZ030>032-037>040-046>048-054>057-064-065-300900-
CENTRAL INDIANA

CITY           SKY/WX    TMP DP  RH WIND       PRES   REMARKS
INDIANAPOLIS   CLEAR     38  32  79 W3        30.14S
-EAGLE CREEK   CLEAR     37  33  85 CALM      30.14S
KOKOMO *+      CLOUDY    43  36  75 W3        30.15R
MT COMFORT *+  CLEAR     36  30  80 CALM      30.14S
SHELBYVILLE    PTCLDY    38  33  82 CALM      30.14R

$$

INZ033-034-041-042-049-050-058-059-300900-
EAST CENTRAL INDIANA

CITY           SKY/WX    TMP DP  RH WIND       PRES   REMARKS
MUNCIE         CLOUDY    42  35  76 CALM      30.13S

$$

INZ060-061-067>069-081>083-085>088-300900-
SOUTHWEST INDIANA

CITY           SKY/WX    TMP DP  RH WIND       PRES   REMARKS
EVANSVILLE     CLEAR     39  36  89 CALM      30.17S
HUNTINGBURG *+ CLEAR     37  34  87 N12G26    30.17S

$$

INZ062-063-066-070>080-084-089>092-300900-
SOUTH CENTRAL AND SOUTHEAST INDIANA

CITY           SKY/WX    TMP DP  RH WIND       PRES   REMARKS
BLOOMINGTON    CLEAR     35  33  92 CALM      30.15S

$$




USA.gov is the U.S. government's official web portal to all federal, state and local government web resources and services.